KK2Z-13 Weather Reports


Display with metric or nautical units.
time (UTC)temp
F
wind
direction
speed
MPH
gust
MPH
rain 1hr
in
rain 24hr
in
rain mn
in
humidity
%
barometer
mb
20240225204519 87 263 3.0 8.0 0.00 0.00 0.00 30 1011.5
20240225203016 86 259 1.0 4.0 0.00 0.00 0.00 37 1011.6
20240225201529 86 281 2.0 5.0 0.00 0.00 0.00 38 1012.0
20240225200010 85 250 2.0 7.0 0.00 0.00 0.00 38 1012.1
20240225194527 84 254 2.0 7.0 0.00 0.00 0.00 37 1012.4
20240225193005 83 268 2.0 7.0 0.00 0.00 0.00 40 1012.6
20240225191603 83 335 4.0 8.0 0.00 0.00 0.00 39 1012.9
20240225190107 82 256 4.0 8.0 0.00 0.00 0.00 42 1013.2
20240225184555 82 219 3.0 9.0 0.00 0.00 0.00 44 1013.4
20240225183051 80 236 4.0 7.0 0.00 0.00 0.00 45 1013.7
20240225181550 79 248 3.0 8.0 0.00 0.00 0.00 48 1014.0
20240225180043 78 274 2.0 9.0 0.00 0.00 0.00 53 1014.2
20240225174548 77 233 3.0 9.0 0.00 0.00 0.00 54 1014.6
20240225173038 76 239 5.0 12.0 0.00 0.00 0.00 56 1014.7
20240225171532 74 75 3.0 10.0 0.00 0.00 0.00 59 1014.8
20240225170029 73 360 5.0 10.0 0.00 0.00 0.00 60 1014.9
20240225164526 72 360 5.0 11.0 0.00 0.00 0.00 63 1015.1
20240225163022 70 360 4.0 10.0 0.00 0.00 0.00 67 1015.2
20240225161520 69 360 3.0 12.0 0.00 0.00 0.00 69 1015.6
20240225160024 68 246 3.0 9.0 0.00 0.00 0.00 70 1015.8
20240225154513 67 360 4.0 11.0 0.00 0.00 0.00 71 1015.6
20240225153018 66 227 4.0 14.0 0.00 0.00 0.00 74 1015.5
20240225151513 64 292 4.0 14.0 0.00 0.00 0.00 76 1015.5
20240225150004 63 360 6.0 15.0 0.00 0.00 0.00 77 1015.4
20240225144503 63 360 5.0 12.0 0.00 0.00 0.00 78 1015.5
20240225143058 62 360 4.0 10.0 0.00 0.00 0.00 79 1015.1
20240225141558 61 360 5.0 10.0 0.00 0.00 0.00 81 1015.1
20240225140053 59 360 4.0 10.0 0.00 0.00 0.00 83 1014.9
20240225134551 58 360 3.0 10.0 0.00 0.00 0.00 84 1014.9
20240225133054 57 360 3.0 8.0 0.00 0.00 0.00 83 1014.9
20240225131549 57 360 3.0 10.0 0.00 0.00 0.00 82 1014.9
20240225130047 57 360 3.0 9.0 0.00 0.00 0.00 80 1014.7
20240225124546 57 360 3.0 9.0 0.00 0.00 0.00 78 1014.8
20240225123044 57 360 4.0 9.0 0.00 0.00 0.00 75 1014.8
20240225121542 57 360 3.0 9.0 0.00 0.00 0.00 72 1014.8
20240225120041 57 360 3.0 9.0 0.00 0.00 0.00 69 1014.8
20240225114539 56 360 3.0 9.0 0.00 0.00 0.00 66 1014.8
20240225113037 56 360 4.0 11.0 0.00 0.00 0.00 63 1014.7
20240225111536 56 360 3.0 9.0 0.00 0.00 0.00 61 1014.8
20240225110033 56 360 3.0 9.0 0.00 0.00 0.00 60 1014.7
20240225104536 56 360 4.0 8.0 0.00 0.00 0.00 59 1014.8
20240225103029 56 360 4.0 9.0 0.00 0.00 0.00 57 1014.9
20240225101527 56 360 2.0 9.0 0.00 0.00 0.00 54 1015.0
20240225100024 57 360 3.0 10.0 0.00 0.00 0.00 52 1015.1
20240225094521 57 360 3.0 11.0 0.00 0.00 0.00 50 1015.3
20240225093020 58 360 4.0 10.0 0.00 0.00 0.00 49 1015.4
20240225091515 58 360 4.0 10.0 0.00 0.00 0.00 47 1015.6
20240225090031 58 360 4.0 12.0 0.00 0.00 0.00 48 1015.7
20240225084511 58 360 4.0 10.0 0.00 0.00 0.00 48 1016.0
20240225083009 58 360 3.0 11.0 0.00 0.00 0.00 47 1016.2
20240225081506 58 360 3.0 10.0 0.00 0.00 0.00 47 1016.2
20240225080013 58 360 3.0 10.0 0.00 0.00 0.00 46 1016.3
20240225074605 58 360 3.0 11.0 0.00 0.00 0.00 45 1016.5
20240225073100 59 360 3.0 12.0 0.00 0.00 0.00 45 1016.6
20240225071556 59 360 3.0 9.0 0.00 0.00 0.00 45 1016.8
20240225070054 59 360 3.0 10.0 0.00 0.00 0.00 44 1016.9
20240225064553 60 360 2.0 8.0 0.00 0.00 0.00 44 1017.0
20240225063104 60 360 3.0 11.0 0.00 0.00 0.00 44 1017.0
20240225061550 60 360 4.0 11.0 0.00 0.00 0.00 46 1016.9
20240225060050 60 360 4.0 10.0 0.00 0.00 0.00 47 1017.1
20240225054602 60 360 3.0 10.0 0.00 0.00 0.00 48 1017.2
20240225053047 60 360 4.0 10.0 0.00 0.00 0.00 48 1017.4
20240225051555 61 360 4.0 9.0 0.00 0.00 0.00 48 1017.5
20240225050045 61 360 4.0 11.0 0.00 0.00 0.00 47 1017.7
20240225044545 62 360 3.0 10.0 0.00 0.00 0.00 46 1017.6
20240225043047 62 360 3.0 10.0 0.00 0.00 0.00 46 1017.8
20240225041547 62 360 3.0 8.0 0.00 0.00 0.00 46 1017.8
20240225040100 60 360 2.0 5.0 0.00 0.00 0.00 47 1017.6
20240225034542 60 360 0.0 3.0 0.00 0.00 0.00 48 1017.5
20240225033042 60 360 1.0 4.0 0.00 0.00 0.00 47 1017.4
20240225031603 61 360 1.0 3.0 0.00 0.00 0.00 47 1017.5
20240225030044 61 360 1.0 3.0 0.00 0.00 0.00 46 1017.5
20240225024551 62 360 1.0 5.0 0.00 0.00 0.00 45 1017.4
20240225023044 62 360 1.0 4.0 0.00 0.00 0.00 45 1017.3
20240225021543 63 360 1.0 3.0 0.00 0.00 0.00 44 1017.3
20240225020040 64 360 1.0 4.0 0.00 0.00 0.00 43 1017.1
20240225014548 64 360 0.0 3.0 0.00 0.00 0.00 42 1017.1
20240225013039 65 360 1.0 4.0 0.00 0.00 0.00 41 1017.1
20240225011548 67 360 1.0 4.0 0.00 0.00 0.00 40 1017.1
20240225010038 67 360 1.0 5.0 0.00 0.00 0.00 38 1017.0
20240225004542 69 360 0.0 4.0 0.00 0.00 0.00 36 1016.9
20240225003036 70 360 1.0 4.0 0.00 0.00 0.00 34 1016.9
20240225001544 71 360 1.0 5.0 0.00 0.00 0.00 33 1016.8
20240225000035 73 360 2.0 6.0 0.00 0.00 0.00 31 1017.0
20240224234534 74 360 2.0 7.0 0.00 0.00 0.00 30 1016.8
20240224233035 75 253 3.0 7.0 0.00 0.00 0.00 29 1017.0
20240224231533 76 185 2.0 8.0 0.00 0.00 0.00 29 1017.0
20240224230031 77 249 4.0 10.0 0.00 0.00 0.00 28 1017.1
20240224224542 77 188 3.0 8.0 0.00 0.00 0.00 28 1017.1
20240224223029 78 266 3.0 6.0 0.00 0.00 0.00 27 1017.2
20240224221531 78 193 1.0 5.0 0.00 0.00 0.00 28 1017.4
20240224220026 77 248 3.0 11.0 0.00 0.00 0.00 28 1017.5
20240224214525 79 194 1.0 8.0 0.00 0.00 0.00 28 1017.6
20240224213027 78 256 1.0 5.0 0.00 0.00 0.00 27 1017.7
20240224211535 77 190 2.0 9.0 0.00 0.00 0.00 27 1017.9
20240224210019 78 154 2.0 6.0 0.00 0.00 0.00 29 1018.1